When you browse on this site, cookies collect data to enhance your experience and personalize the content and advertising you see.
Visit our Privacy Policy to learn more. By continuing to use the site, you agree to this use of cookies and data.
  • In Czech Republic
  • List of Countries
  • For 7 days
  • Water Temperature
  • Weather Map
  • Weather Widgets
  • user-avatar
    Login

    Hourly Weather Piedecuesta

    Today, 25 January, Saturday

    Time Temperature Precipitation Wind Pressure Humidity
    00:00 +20°C° 0.5 mm 0 mps 671 mmHg 95%
    01:00 +20°C° 0.5 mm 0 mps 671 mmHg 95%
    02:00 +20°C° 0.6 mm 0 mps 671 mmHg 95%
    03:00 +20°C° 0.6 mm 0 mps 671 mmHg 95%
    04:00 +20°C° 0.6 mm 0 mps 670 mmHg 96%
    05:00 +20°C° 0.6 mm 0 mps 671 mmHg 95%
    06:00 +20°C° 0.6 mm 0 mps 671 mmHg 95%
    07:00 +20°C° 0.6 mm 0 mps 672 mmHg 95%
    08:00 +21°C° 0.3 mm 0 mps 672 mmHg 93%
    09:00 +24°C° 0.3 mm 1 mps 673 mmHg 92%
    10:00 +24°C° 0.3 mm 1 mps 673 mmHg 90%
    11:00 +25°C° 0.1 mm 1 mps 672 mmHg 87%
    12:00 +26°C° 0.1 mm 1 mps 672 mmHg 85%
    13:00 +27°C° 0.1 mm 2 mps 671 mmHg 82%
    14:00 +26°C° 0.2 mm 2 mps 670 mmHg 82%
    15:00 +26°C° 0.2 mm 2 mps 670 mmHg 83%
    16:00 +26°C° 0.2 mm 2 mps 669 mmHg 84%
    17:00 +25°C° 0.1 mm 1 mps 669 mmHg 88%
    18:00 +24°C° 0.1 mm 1 mps 670 mmHg 92%
    19:00 +21°C° 0.1 mm 0 mps 670 mmHg 96%
    20:00 +21°C° 0.2 mm 0 mps 670 mmHg 95%
    21:00 +21°C° 0.2 mm 0 mps 671 mmHg 94%
    22:00 +21°C° 0.2 mm 0 mps 671 mmHg 94%
    23:00 +21°C° 0.3 mm 0 mps 671 mmHg 93%

    Tomorrow, 26 January, Sunday

    Time Temperature Precipitation Wind Pressure Humidity
    00:00 +21°C° 0.3 mm 0 mps 671 mmHg 93%
    01:00 +21°C° 0.3 mm 0 mps 671 mmHg 93%
    02:00 +21°C° 0.6 mm 0 mps 670 mmHg 94%
    03:00 +20°C° 0.6 mm 0 mps 670 mmHg 94%
    04:00 +20°C° 0.6 mm 0 mps 670 mmHg 94%
    05:00 +20°C° 0.8 mm 0 mps 670 mmHg 94%
    06:00 +21°C° 0.8 mm 0 mps 671 mmHg 93%
    07:00 +21°C° 0.8 mm 0 mps 671 mmHg 93%
    08:00 +23°C° 0.7 mm 1 mps 672 mmHg 92%
    09:00 +24°C° 0.7 mm 1 mps 672 mmHg 90%
    10:00 +24°C° 0.7 mm 1 mps 672 mmHg 89%
    11:00 +25°C° 0.2 mm 1 mps 672 mmHg 88%
    12:00 +25°C° 0.2 mm 1 mps 671 mmHg 86%
    13:00 +26°C° 0.2 mm 1 mps 671 mmHg 85%
    14:00 +26°C° 0.3 mm 1 mps 670 mmHg 85%
    15:00 +26°C° 0.3 mm 1 mps 670 mmHg 86%
    16:00 +25°C° 0.3 mm 1 mps 669 mmHg 87%
    17:00 +25°C° 0.5 mm 1 mps 670 mmHg 90%
    18:00 +24°C° 0.5 mm 1 mps 670 mmHg 93%
    19:00 +21°C° 0.5 mm 0 mps 670 mmHg 96%
    20:00 +21°C° 0.5 mm 0 mps 671 mmHg 95%
    21:00 +21°C° 0.5 mm 0 mps 671 mmHg 95%
    22:00 +20°C° 0.5 mm 0 mps 672 mmHg 95%
    23:00 +20°C° 0.6 mm 0 mps 671 mmHg 95%

    Day after tomorrow, 27 January, Monday

    Time Temperature Precipitation Wind Pressure Humidity
    00:00 +20°C° 0.6 mm 0 mps 671 mmHg 95%
    01:00 +20°C° 0.6 mm 0 mps 671 mmHg 95%
    02:00 +20°C° 0.5 mm 0 mps 670 mmHg 95%
    03:00 +20°C° 0.5 mm 0 mps 670 mmHg 95%
    04:00 +20°C° 0.5 mm 0 mps 670 mmHg 95%
    05:00 +20°C° 0.1 mm 0 mps 670 mmHg 93%
    06:00 +20°C° 0.1 mm 0 mps 671 mmHg 92%
    07:00 +20°C° 0.1 mm 0 mps 672 mmHg 91%
    08:00 +21°C° 0.1 mm 0 mps 672 mmHg 88%
    09:00 +25°C° 0.1 mm 1 mps 673 mmHg 85%
    10:00 +26°C° 0.1 mm 1 mps 673 mmHg 82%
    11:00 +26°C° 0.3 mm 1 mps 672 mmHg 81%
    12:00 +27°C° 0.3 mm 1 mps 672 mmHg 80%
    13:00 +27°C° 0.3 mm 1 mps 671 mmHg 79%
    14:00 +27°C° 0.4 mm 1 mps 670 mmHg 81%
    15:00 +26°C° 0.4 mm 1 mps 670 mmHg 82%
    16:00 +26°C° 0.4 mm 1 mps 669 mmHg 84%
    17:00 +25°C° 0.5 mm 1 mps 670 mmHg 88%
    18:00 +24°C° 0.5 mm 1 mps 670 mmHg 92%
    19:00 +21°C° 0.5 mm 0 mps 670 mmHg 96%
    20:00 +21°C° 0.7 mm 0 mps 671 mmHg 95%
    21:00 +21°C° 0.7 mm 0 mps 671 mmHg 94%
    22:00 +20°C° 0.7 mm 0 mps 671 mmHg 93%
    23:00 +20°C° 0.2 mm 0 mps 671 mmHg 93%

    28 January, Tuesday

    Time Temperature Precipitation Wind Pressure Humidity
    00:00 +20°C° 0.2 mm 0 mps 671 mmHg 93%
    01:00 +20°C° 0.2 mm 0 mps 670 mmHg 94%
    02:00 +20°C° 0.3 mm 0 mps 670 mmHg 94%
    03:00 +20°C° 0.3 mm 0 mps 670 mmHg 94%
    04:00 +19°C° 0.3 mm 0 mps 670 mmHg 94%
    05:00 +20°C° 0.3 mm 0 mps 670 mmHg 93%
    06:00 +20°C° 0.3 mm 0 mps 671 mmHg 93%
    07:00 +20°C° 0.3 mm 0 mps 672 mmHg 92%
    08:00 +23°C° 0.3 mm 1 mps 672 mmHg 89%
    09:00 +24°C° 0.3 mm 1 mps 672 mmHg 86%
    10:00 +25°C° 0.3 mm 1 mps 672 mmHg 83%
    11:00 +26°C° 0.3 mm 1 mps 672 mmHg 82%
    12:00 +26°C° 0.3 mm 1 mps 671 mmHg 81%
    13:00 +27°C° 0.3 mm 2 mps 670 mmHg 81%
    14:00 +26°C° 0.4 mm 1 mps 670 mmHg 82%
    15:00 +26°C° 0.4 mm 1 mps 669 mmHg 84%
    16:00 +26°C° 0.4 mm 1 mps 669 mmHg 86%
    17:00 +25°C° 0.3 mm 1 mps 669 mmHg 89%
    18:00 +24°C° 0.3 mm 1 mps 669 mmHg 93%
    19:00 +21°C° 0.3 mm 0 mps 670 mmHg 96%
    20:00 +21°C° 0.2 mm 0 mps 670 mmHg 95%
    21:00 +21°C° 0.2 mm 0 mps 670 mmHg 95%
    22:00 +20°C° 0.2 mm 0 mps 670 mmHg 94%
    23:00 +20°C° 0.3 mm 0 mps 670 mmHg 94%

    29 January, Wednesday

    Time Temperature Precipitation Wind Pressure Humidity
    00:00 +20°C° 0.3 mm 0 mps 670 mmHg 94%
    01:00 +20°C° 0.3 mm 0 mps 670 mmHg 94%
    02:00 +20°C° 0.3 mm 0 mps 670 mmHg 94%
    03:00 +20°C° 0.3 mm 0 mps 670 mmHg 95%
    04:00 +19°C° 0.3 mm 0 mps 669 mmHg 95%
    05:00 +20°C° 0.2 mm 0 mps 670 mmHg 94%
    06:00 +20°C° 0.2 mm 0 mps 671 mmHg 92%
    07:00 +21°C° 0.2 mm 0 mps 671 mmHg 91%
    08:00 +22°C° 0.5 mm 0 mps 672 mmHg 88%
    09:00 +25°C° 0.5 mm 1 mps 672 mmHg 84%
    10:00 +26°C° 0.5 mm 1 mps 672 mmHg 80%
    11:00 +26°C° 0.4 mm 1 mps 671 mmHg 80%
    12:00 +27°C° 0.4 mm 2 mps 671 mmHg 80%
    13:00 +27°C° 0.4 mm 2 mps 670 mmHg 80%
    14:00 +26°C° 0.5 mm 2 mps 670 mmHg 82%
    15:00 +26°C° 0.5 mm 1 mps 669 mmHg 84%
    16:00 +26°C° 0.5 mm 1 mps 669 mmHg 86%
    17:00 +25°C° 0.5 mm 1 mps 669 mmHg 89%
    18:00 +24°C° 0.5 mm 1 mps 669 mmHg 92%
    19:00 +21°C° 0.5 mm 0 mps 670 mmHg 95%
    20:00 +21°C° 0.3 mm 0 mps 670 mmHg 94%
    21:00 +20°C° 0.3 mm 0 mps 670 mmHg 93%
    22:00 +20°C° 0.3 mm 0 mps 670 mmHg 92%
    23:00 +20°C° 0.4 mm 0 mps 670 mmHg 91%

    30 January, Thursday

    Time Temperature Precipitation Wind Pressure Humidity
    00:00 +20°C° 0.4 mm 0 mps 670 mmHg 91%
    01:00 +20°C° 0.4 mm 0 mps 670 mmHg 90%
    02:00 +20°C° 0.8 mm 0 mps 670 mmHg 91%
    03:00 +20°C° 0.8 mm 0 mps 669 mmHg 91%
    04:00 +20°C° 0.8 mm 0 mps 669 mmHg 91%
    05:00 +20°C° 1 mm 0 mps 670 mmHg 91%
    06:00 +20°C° 1 mm 0 mps 670 mmHg 92%
    07:00 +20°C° 1 mm 0 mps 671 mmHg 92%
    08:00 +23°C° 0.6 mm 1 mps 671 mmHg 90%
    09:00 +24°C° 0.6 mm 1 mps 672 mmHg 88%
    10:00 +25°C° 0.6 mm 1 mps 672 mmHg 86%
    11:00 +25°C° 0.3 mm 1 mps 671 mmHg 84%
    12:00 +26°C° 0.3 mm 1 mps 671 mmHg 82%
    13:00 +26°C° 0.3 mm 2 mps 670 mmHg 81%
    14:00 +26°C° 0.2 mm 2 mps 670 mmHg 81%
    15:00 +26°C° 0.2 mm 2 mps 669 mmHg 82%
    16:00 +26°C° 0.2 mm 1 mps 669 mmHg 83%
    17:00 +25°C° 0.3 mm 1 mps 669 mmHg 86%
    18:00 +24°C° 0.3 mm 1 mps 669 mmHg 89%
    19:00 +23°C° 0.3 mm 1 mps 669 mmHg 92%
    20:00 +23°C° 0.2 mm 1 mps 670 mmHg 90%
    21:00 +22°C° 0.2 mm 1 mps 670 mmHg 88%
    22:00 +21°C° 0.2 mm 2 mps 670 mmHg 86%
    23:00 +21°C° 0 mm 1 mps 670 mmHg 82%
    Show more